This demonstration page uses our WeatherBlox Daily Observations layout. Learn more.

Hourly Observations for August 29, 2016

Temp ( °F °C ) Dew Point ( °F °C ) Humidity (%) Winds ( mph kmh ) Pressure ( in mb ) Visibility ( mi km ) Precip ( " mm )
12:54 am 00:54 Clear 72 22.2 67 19.4 84 84 S 5 7 30.1 1019 10 16.0934 0 0
1:54 am 01:54 Clear 71 21.7 68 20 90 90 SSW 5 7 30.1 1019 10 16.0934 0 0
2:54 am 02:54 Clear 73 22.8 68 20 84 84 SW 3 6 30.1 1019 10 16.0934 0 0
3:54 am 03:54 Clear 72 22.2 68 20 87 87 Calm 30.11 1020 10 16.0934 0 0
4:54 am 04:54 Clear 70 21.1 67 19.4 90 90 E 6 9 30.11 1020 10 16.0934 0 0
5:54 am 05:54 Mostly Clear 70 21.1 67 19.4 90 90 ESE 3 6 30.11 1020 10 16.0934 0 0
6:54 am 06:54 Mostly Sunny 69 20.6 67 19.4 93 93 Calm 30.14 1021 10 16.0934 0 0
7:54 am 07:54 Sunny 71 21.7 68 20 90 90 S 3 6 30.15 1021 10 16.0934 0 0
8:54 am 08:54 Sunny 75 23.9 69 20.6 82 82 SE 3 6 30.16 1021 10 16.0934 0 0
9:54 am 09:54 Sunny 78 25.6 71 21.7 79 79 S 7 11 30.16 1022 10 16.0934 0 0
10:54 am 10:54 Sunny 81 27.2 71 21.7 72 72 S 7 11 30.17 1022 10 16.0934 0 0
11:54 am 11:54 Sunny 81 27.2 71 21.7 72 72 S 7 11 30.17 1022 10 16.0934 0 0
12:54 pm 12:54 Sunny 85 29.4 71 21.7 63 63 SSE 3 6 30.16 1021 10 16.0934 0 0
1:54 pm 13:54 Sunny 87 30.6 73 22.8 63 63 N 7 11 30.14 1021 10 16.0934 0 0
2:23 pm 14:23 Partly Cloudy with Nearby Thunderstorms 88 31 72 22 59 59 Calm 30.09 1019 10 16.0934 0 0
2:54 pm 14:54 Mostly Cloudy with Nearby Thunderstorms 87 30.6 71 21.7 59 59 E 3 6 30.11 1020 10 16.0934 0 0
3:52 pm 15:52 Cloudy with Thunderstorms 82 28 73 23 74 74 NNW 12 19 30.06 1018 10 16.0934 0 0
3:54 pm 15:54 Cloudy with Thunderstorms 83 28.3 73 22.8 72 72 N 9 15 30.09 1019 10 16.0934 0 0
4:51 pm 16:51 Cloudy with Heavy Thunderstorms 73 22.8 70 21.1 90 90 S 15 24 30.14 1021 0.75 1.207005 0.24 6.096
4:58 pm 16:58 Cloudy with Heavy Thunderstorms 72 22 68 20 88 88 S 22 35 30.12 1020 0.75 1.207005 0 0
5:05 pm 17:05 Cloudy with Light Thunderstorms 71 21.7 67 19.4 87 87 SSW 15 24 30.12 1020 2 3.21868 0.2 5.08
5:13 pm 17:13 Cloudy with Light Thunderstorms 72 22.2 67 19.4 84 84 S 17 28 30.12 1020 9 14.48406 0.2 5.08
5:54 pm 17:54 Cloudy with Light Thunderstorms 74 23.3 68 20 82 82 N 12 19 30.14 1021 8 12.87472 0.21 5.334
6:01 pm 18:01 Cloudy with Light Rain 73 22.8 68 20 84 84 N 9 15 30.12 1020 8 12.87472 0.01 0.254
6:54 pm 18:54 Sunny 74 23.3 69 20.6 85 85 Calm 30.14 1021 10 16.0934 0.01 0.254
7:54 pm 19:54 Mostly Cloudy 73 22.8 68 20 84 84 NNW 7 11 30.14 1021 10 16.0934 0 0
8:54 pm 20:54 Cloudy 72 22.2 68 20 87 87 NE 6 9 30.16 1021 10 16.0934 0 0
9:54 pm 21:54 Mostly Clear 71 21.7 69 20.6 94 94 E 10 17 30.17 1022 10 16.0934 0 0.0254
10:54 pm 22:54 Partly Cloudy 71 21.7 69 20.6 94 94 N 7 11 30.17 1022 10 16.0934 0 0
11:17 pm 23:17 Cloudy 70 21.1 69 20.6 97 97 ENE 5 7 30.18 1022 10 16.0934 0 0
11:27 pm 23:27 Cloudy 71 21.7 69 20.6 94 94 ENE 6 9 30.21 1023 10 16.0934 0 0
11:54 pm 23:54 Cloudy 70 21.1 69 20.6 97 97 SE 7 11 30.21 1023 10 16.0934 0 0

Powered by AerisWeather